Location: Unspecified
(0.0000°N, 0.0000°E)
Time: 07:56:04
(UTC+00:00)

Amateur Radio Satellites - All Passes

Search period start: 25 August 2016 07:26
Search period end: 26 August 2016 07:26
Location: Unspecified, 0.0000°N, 0.0000°E

Satellite Date Start Highest point End Downlink Frequencies (MHz)
Time Altitude Azimuth
NOAA 18 25 Aug 07:31:10 07:31:18 10° 284° (WNW) 07:31:25 137.9125
SEEDS 25 Aug 07:56:51 08:01:03 76° 280° (W) 08:05:18 437.485
HO-68 25 Aug 07:58:22 08:05:25 66° 284° (WNW) 08:12:31 435.675
PRISM 25 Aug 08:10:46 08:14:42 50° 78° (ENE) 08:18:37 437.425
CINEMA 3 25 Aug 08:11:16 08:14:32 21° 282° (WNW) 08:17:45 145.822/145.860
CANX-2 25 Aug 08:12:40 08:16:04 23° 281° (WNW) 08:19:29 2200.000
AIST 1 25 Aug 08:13:33 08:17:27 35° 94° (E) 08:21:21
CUTE 1.7 + AOD 2 25 Aug 08:19:28 08:22:49 23° 281° (WNW) 08:26:10 437.475
Cosmos 2504 25 Aug 08:20:25 08:26:24 20° 272° (W) 08:32:16 435.465 / 435.565
SRMSAT 25 Aug 08:23:09 08:28:52 46° 159° (SSE) 08:34:32 437.500
BEESAT 2 25 Aug 08:33:14 08:37:02 51° 112° (ESE) 08:40:50 435.950
AAUSAT CUBESAT 2 25 Aug 08:37:22 08:41:17 41° 281° (W) 08:45:14 437.432
JUGNU 25 Aug 08:41:45 08:47:22 41° 340° (NNW) 08:52:57 437.505
COMPASS 1 25 Aug 08:42:42 08:46:10 26° 281° (WNW) 08:49:41 437.405
CUBEBUG 2 25 Aug 08:49:34 08:53:13 31° 281° (WNW) 08:56:53 437.445
Oscar 11 25 Aug 08:52:01 08:56:20 89° 115° (ESE) 09:00:41 145.826/435.025
UWE-3 25 Aug 08:53:29 08:57:26 46° 281° (WNW) 09:01:26 435.000/436.395/437.385
FUNcube-1 25 Aug 08:55:13 08:59:20 89° 115° (ESE) 09:03:32 145.935
HUMSAT D 25 Aug 08:55:54 08:56:45 11° 102° (ESE) 08:57:37 437.325/437.525
BEESAT 3 25 Aug 08:58:19 09:01:28 24° 292° (WNW) 09:04:38 437.485
DELFI C3 25 Aug 09:07:25 09:11:16 45° 102° (ESE) 09:15:08 145.870
TIGRISAT 25 Aug 09:12:22 09:15:43 19° 78° (ENE) 09:19:01 435.000
ZACube-1 25 Aug 09:15:11 09:19:03 40° 281° (WNW) 09:22:58 437.345
UNISAT 6 25 Aug 09:38:44 09:43:17 48° 78° (ENE) 09:47:46 437.425
SO-50 25 Aug 09:52:21 09:56:30 41° 68° (ENE) 10:00:38 436.795
PCSat 25 Aug 09:58:01 10:02:50 33° 109° (ESE) 10:07:38 145.827
PHONESAT 2.4 25 Aug 10:04:47 10:07:05 20° 43° (NE) 10:09:25 2401.200-2431.200
SRMSAT 25 Aug 10:12:10 10:18:05 65° 339° (NNW) 10:23:58 437.500
RS-15 25 Aug 10:15:17 10:23:25 20° 67° (ENE) 10:31:16 29.354- 29.394
ANTELSAT 25 Aug 10:15:45 10:20:20 52° 258° (WSW) 10:24:52 437.575/2403.000
AIST 2 25 Aug 10:19:24 10:22:37 22° 112° (ESE) 10:25:49 435.215
ESTCUBE 1 25 Aug 10:20:48 10:24:04 20° 102° (ESE) 10:27:22 437.505/2401.250
GONETS M04 25 Aug 10:21:33 10:28:24 26° 93° (E) 10:35:12
HUMSAT D 25 Aug 10:28:37 10:32:05 27° 281° (W) 10:35:35 437.325/437.525
JUGNU 25 Aug 10:32:53 10:36:48 18° 346° (NNW) 10:40:41 437.505
CUSAT 1 25 Aug 10:34:11 10:41:47 80° 86° (E) 10:49:50 437.405
AISAT 25 Aug 10:41:59 10:44:58 18° 102° (ESE) 10:47:58 437.250
TIGRISAT 25 Aug 10:48:35 10:52:06 21° 258° (WSW) 10:55:37 435.000
50 SAT 25 Aug 10:49:42 10:52:21 19° 102° (ESE) 10:55:01 437.505
QB50P1 25 Aug 10:49:53 10:53:51 37° 78° (ENE) 10:57:48 145.935-145.965
JAS-2 25 Aug 10:56:55 11:00:12 17° 78° (ENE) 11:03:25 435.910
POPSAT HIP 1 25 Aug 10:59:23 11:03:33 51° 78° (ENE) 11:07:42 437.405
DANDE 25 Aug 11:01:40 11:08:25 54° 87° (E) 11:16:23 436.750
BUGSAT 1 25 Aug 11:04:26 11:07:06 16° 78° (ENE) 11:09:46 437.445
AUBIESAT-1 25 Aug 11:05:29 11:08:51 36° 286° (WNW) 11:12:03 437.475
UKube-1 25 Aug 11:07:33 11:10:17 16° 103° (ESE) 11:13:00 .
M-CUBED/EXP-1 PRIME 25 Aug 11:08:54 11:11:55 24° 287° (WNW) 11:14:48 437.505
VELOX 1 25 Aug 11:28:10 11:32:36 79° 101° (E) 11:37:02 145.980
QB50P2 25 Aug 11:28:59 11:33:09 50° 258° (WSW) 11:37:17 145.880/145.840
DUCHIFAT 1 25 Aug 11:30:37 11:34:50 61° 258° (WSW) 11:39:02 145.980
Cosmos 2499 25 Aug 11:31:14 11:40:03 75° 93° (E) 11:48:20 435.465 / 435.565
POLYITAN 1 25 Aug 11:31:31 11:35:41 49° 258° (WSW) 11:39:49 437.675
CUBEBUG 1 25 Aug 11:38:15 11:42:33 55° 282° (WNW) 11:46:50 437.445
PHONESAT 2.4 25 Aug 11:41:28 11:43:19 15° 222° (SW) 11:45:11 2401.200-2431.200
PCSat 25 Aug 11:42:44 11:45:58 16° 290° (WNW) 11:49:11 145.827
NANOSAT C BR1 25 Aug 11:43:13 11:47:09 36° 258° (WSW) 11:51:04 145.865
DX 1 25 Aug 11:55:39 11:59:59 68° 282° (WNW) 12:04:19 434.975-435.025
ESTCUBE 1 25 Aug 11:57:26 12:00:36 19° 282° (WNW) 12:03:48 437.505/2401.250
O/OREOS (USA 219) 25 Aug 11:58:07 12:00:51 16° 105° (ESE) 12:03:33 437.305
AIST 2 25 Aug 11:58:55 12:00:50 13° 292° (WNW) 12:02:45 435.215
SRMSAT 25 Aug 12:02:40 12:07:27 25° 342° (NNW) 12:12:13 437.500
SPROUT 25 Aug 12:09:44 12:13:55 61° 282° (WNW) 12:18:07 437.525
GONETS M04 25 Aug 12:16:55 12:24:48 39° 273° (W) 12:32:44
AISAT 25 Aug 12:18:00 12:21:11 20° 282° (WNW) 12:24:21 437.250
CUSAT 1 25 Aug 12:21:06 12:23:40 12° 264° (W) 12:26:17 437.405
RS-15 25 Aug 12:23:39 12:35:41 69° 250° (WSW) 12:47:12 29.354- 29.394
50 SAT 25 Aug 12:24:29 12:25:41 11° 281° (WNW) 12:26:51 437.505
JUGNU 25 Aug 12:26:06 12:26:45 10° 355° (N) 12:27:24 437.505
BUGSAT 1 25 Aug 12:39:12 12:42:12 19° 258° (WSW) 12:45:11 437.445
TISAT 1 25 Aug 12:39:42 12:43:41 45° 102° (ESE) 12:47:40 437.305
JAS-2 25 Aug 12:40:32 12:45:07 28° 256° (WSW) 12:49:29 435.910
UKube-1 25 Aug 12:42:53 12:46:03 20° 282° (WNW) 12:49:13 .
DANDE 25 Aug 12:46:33 12:51:13 18° 262° (W) 12:56:22 436.750
Oscar 19 25 Aug 13:04:58 13:10:06 83° 80° (E) 13:15:15 437.125/150
ITUPSAT 1 25 Aug 13:27:06 13:30:54 24° 103° (ESE) 13:34:43 437.325
Cosmos 2499 25 Aug 13:29:52 13:32:35 12° 272° (W) 13:35:17 435.465 / 435.565
O/OREOS (USA 219) 25 Aug 13:36:37 13:39:57 21° 284° (WNW) 13:43:18 437.305
Gurwin Techsat 1B 25 Aug 13:52:13 13:57:32 74° 257° (WSW) 14:02:49 435.225
SRMSAT 25 Aug 13:54:58 13:57:19 12° 351° (N) 13:59:40 437.500
SWISSCUBE 25 Aug 14:00:46 14:05:32 81° 104° (ESE) 14:10:20 437.505
ITAMSAT 1 25 Aug 14:13:05 14:18:00 42° 77° (ENE) 14:22:53 435.822/435.867
JUGNU 25 Aug 14:15:52 14:16:58 10° 6° (N) 14:18:04 437.505
BEESAT 25 Aug 14:18:16 14:22:59 68° 282° (WNW) 14:27:44 436.000
MOZHAYETS 4 25 Aug 14:57:12 15:01:16 32° 102° (ESE) 15:05:22
AO-7 25 Aug 15:04:06 15:12:23 63° 74° (ENE) 15:20:35 29.400- 29.500
ITUPSAT 1 25 Aug 15:05:19 15:08:28 18° 282° (WNW) 15:11:38 437.325
KKS-1 25 Aug 15:11:51 15:15:55 36° 102° (ESE) 15:19:59 437.445
AO-85 25 Aug 15:31:02 15:34:27 30° 68° (ENE) 15:37:50 145.980
STARS 25 Aug 15:55:09 15:59:26 60° 102° (ESE) 16:03:44 437.465
ITAMSAT 1 25 Aug 15:55:33 15:57:10 11° 256° (WSW) 15:58:48 435.822/435.867
Cosmos 2491 25 Aug 16:01:30 16:03:28 11° 93° (E) 16:05:27 435.465 / 435.565
JUGNU 25 Aug 16:02:48 16:06:51 19° 15° (NNE) 16:10:55 437.505
CUBESAT XI-V 25 Aug 16:10:12 16:13:50 22° 102° (ESE) 16:17:28 437.345
MOZHAYETS 4 25 Aug 16:36:36 16:38:10 12° 282° (WNW) 16:39:44
YUBILEINY 25 Aug 16:43:54 16:51:00 28° 87° (E) 16:58:03 435.215
NOAA 15 25 Aug 16:45:39 16:48:20 14° 77° (ENE) 16:51:01 137.62
HORYU 2 25 Aug 16:46:28 16:50:58 83° 256° (WSW) 16:55:27 437.375
NOAA 18 25 Aug 16:53:30 16:55:04 11° 76° (ENE) 16:56:37 137.9125
AO-7 25 Aug 16:59:59 17:04:41 16° 253° (WSW) 17:09:25 29.400- 29.500
LilacSat-2 25 Aug 17:00:40 17:01:44 11° 79° (E) 17:02:48 437.200
GOMX 1 25 Aug 17:29:23 17:33:26 32° 77° (ENE) 17:37:44 467.674
SRMSAT 25 Aug 17:34:51 17:37:54 14° 12° (NNE) 17:40:58 437.500
BRITE-PL 25 Aug 17:39:35 17:43:48 59° 259° (W) 17:48:17 437.365/2234.400
CUBESAT XI-V 25 Aug 17:47:44 17:50:56 18° 282° (WNW) 17:54:09 437.345
DOVE 4 25 Aug 17:49:54 17:53:36 22° 77° (ENE) 17:57:26 437.250
JUGNU 25 Aug 17:50:36 17:56:11 46° 20° (NNE) 18:01:46 437.505
Cosmos 2491 25 Aug 17:51:14 17:59:56 76° 273° (W) 18:08:36 435.465 / 435.565
Cubesat XI-IV 25 Aug 17:59:41 18:05:05 86° 79° (E) 18:10:26 437.490
STRAND 1 25 Aug 18:03:04 18:06:22 17° 103° (ESE) 18:09:39 437.568
CUTE-I 25 Aug 18:12:29 18:17:49 67° 257° (WSW) 18:23:06 437.470
NOAA 15 25 Aug 18:23:05 18:27:50 35° 257° (WSW) 18:32:34 137.62
NOAA 18 25 Aug 18:30:04 18:35:25 49° 257° (WSW) 18:40:45 137.9125
LilacSat-2 25 Aug 18:32:41 18:35:46 22° 258° (WSW) 18:38:50 437.200
Cosmos 2504 25 Aug 18:37:01 18:44:04 63° 87° (E) 18:51:24 435.465 / 435.565
YUBILEINY 25 Aug 18:39:40 18:47:23 36° 267° (W) 18:55:08 435.215
ISS 25 Aug 18:40:37 18:43:43 42° 235° (SW) 18:46:50 145.825
CANX-2 25 Aug 18:44:23 18:47:04 16° 79° (ENE) 18:49:44 2200.000
CINEMA 3 25 Aug 18:49:30 18:53:40 28° 78° (ENE) 18:57:53 145.822/145.860
CUTE 1.7 + AOD 2 25 Aug 18:50:56 18:53:43 17° 79° (ENE) 18:56:27 437.475
GOMX 1 25 Aug 19:09:46 19:11:21 12° 260° (W) 19:12:58 467.674
COMPASS 1 25 Aug 19:13:10 19:15:11 13° 78° (ENE) 19:17:11 437.405
BEESAT 3 25 Aug 19:15:12 19:16:24 11° 68° (ENE) 19:17:37 437.485
SRMSAT 25 Aug 19:22:30 19:27:39 30° 19° (NNE) 19:32:50 437.500
CUBEBUG 2 25 Aug 19:26:13 19:29:19 17° 78° (ENE) 19:32:24 437.445
DOVE 4 25 Aug 19:27:40 19:31:02 19° 260° (W) 19:34:31 437.250
UWE-3 25 Aug 19:31:13 19:32:32 11° 78° (ENE) 19:33:52 435.000/436.395/437.385
JUGNU 25 Aug 19:39:26 19:45:13 64° 201° (SSW) 19:51:02 437.505
STRAND 1 25 Aug 19:40:56 19:45:15 28° 282° (WNW) 19:49:35 437.568
HO-68 25 Aug 19:49:51 19:57:03 78° 256° (WSW) 20:04:14 435.675
ZACube-1 25 Aug 19:51:23 19:53:03 12° 78° (ENE) 19:54:41 437.345
SEEDS 25 Aug 20:02:19 20:06:28 62° 259° (WSW) 20:10:35 437.485
PRISM 25 Aug 20:13:21 20:17:27 56° 102° (ESE) 20:21:32 437.425
CANX-2 25 Aug 20:19:40 20:22:39 19° 258° (WSW) 20:25:38 2200.000
AIST 1 25 Aug 20:19:50 20:24:04 50° 86° (E) 20:28:17
CUTE 1.7 + AOD 2 25 Aug 20:26:22 20:29:17 18° 258° (WSW) 20:32:11 437.475
BEESAT 2 25 Aug 20:26:39 20:30:32 55° 68° (ENE) 20:34:25 435.950
CINEMA 3 25 Aug 20:27:32 20:30:31 16° 259° (W) 20:33:33 145.822/145.860
Cosmos 2504 25 Aug 20:35:56 20:37:12 10° 265° (W) 20:38:29 435.465 / 435.565
AAUSAT CUBESAT 2 25 Aug 20:41:13 20:45:00 35° 259° (WSW) 20:48:45 437.432
COMPASS 1 25 Aug 20:47:16 20:50:29 22° 258° (WSW) 20:53:40 437.405
BEESAT 3 25 Aug 20:50:37 20:53:49 24° 248° (WSW) 20:57:00 437.485
HUMSAT D 25 Aug 20:59:40 21:01:41 13° 79° (ENE) 21:03:42 437.325/437.525
Oscar 11 25 Aug 21:00:50 21:05:08 67° 258° (WSW) 21:09:25 145.826/435.025
CUBEBUG 2 25 Aug 21:01:49 21:05:39 24° 258° (WSW) 21:09:29 437.445
UWE-3 25 Aug 21:04:27 21:08:43 35° 258° (WSW) 21:12:56 435.000/436.395/437.385
FUNcube-1 25 Aug 21:04:30 21:09:03 66° 258° (WSW) 21:13:32 145.935
DELFI C3 25 Aug 21:06:23 21:10:08 43° 79° (ENE) 21:13:51 145.870
SRMSAT 25 Aug 21:10:59 21:16:57 82° 21° (NNE) 21:22:57 437.500
ZACube-1 25 Aug 21:24:59 21:29:04 31° 258° (WSW) 21:33:05 437.345
TIGRISAT 25 Aug 21:25:06 21:28:36 25° 102° (ESE) 21:32:08 435.000
JUGNU 25 Aug 21:29:43 21:34:25 25° 197° (SSW) 21:39:10 437.505
PHONESAT 2.4 25 Aug 21:32:04 21:33:21 12° 138° (SE) 21:34:37 2401.200-2431.200
M-CUBED/EXP-1 PRIME 25 Aug 21:35:12 21:36:44 12° 72° (ENE) 21:38:16 437.505
UNISAT 6 25 Aug 21:52:08 21:56:22 72° 102° (ESE) 22:00:39 437.425
RS-15 25 Aug 21:59:28 22:04:32 14° 113° (ESE) 22:09:38 29.354- 29.394
SO-50 25 Aug 22:04:15 22:09:05 82° 112° (ESE) 22:13:57 436.795
AIST 2 25 Aug 22:17:19 22:20:55 28° 68° (ENE) 22:24:30 435.215
JAS-2 25 Aug 22:28:29 22:32:17 14° 105° (ESE) 22:36:07 435.910
ANTELSAT 25 Aug 22:29:39 22:33:24 31° 282° (WNW) 22:37:13 437.575/2403.000
PCSat 25 Aug 22:33:35 22:38:58 78° 251° (WSW) 22:44:21 145.827
HUMSAT D 25 Aug 22:33:37 22:37:03 24° 258° (WSW) 22:40:27 437.325/437.525
ESTCUBE 1 25 Aug 22:34:19 22:38:13 30° 78° (ENE) 22:42:06 437.505/2401.250
50 SAT 25 Aug 22:40:07 22:41:40 12° 79° (ENE) 22:43:15 437.505
AISAT 25 Aug 22:52:58 22:56:37 26° 78° (ENE) 23:00:17 437.250
GONETS M04 25 Aug 22:53:34 23:02:04 52° 87° (E) 23:10:30
QB50P1 25 Aug 22:55:55 22:59:55 45° 102° (ESE) 23:03:56 145.935-145.965
SRMSAT 25 Aug 23:00:44 23:06:13 37° 200° (SSW) 23:11:44 437.500
AUBIESAT-1 25 Aug 23:03:15 23:07:22 48° 255° (WSW) 23:11:43 437.475
TIGRISAT 25 Aug 23:03:26 23:05:02 12° 282° (WNW) 23:06:41 435.000
POPSAT HIP 1 25 Aug 23:05:33 23:09:40 63° 101° (ESE) 23:13:49 437.405
PHONESAT 2.4 25 Aug 23:06:58 23:09:34 26° 317° (NW) 23:12:11 2401.200-2431.200
M-CUBED/EXP-1 PRIME 25 Aug 23:07:02 23:10:52 33° 255° (WSW) 23:14:56 437.505
BUGSAT 1 25 Aug 23:07:33 23:10:14 17° 102° (ESE) 23:12:54 437.445
UKube-1 25 Aug 23:15:31 23:18:48 21° 78° (ENE) 23:22:05 .
CUSAT 1 25 Aug 23:19:30 23:20:51 13° 274° (W) 23:22:11 437.405
JUGNU 25 Aug 23:21:46 23:24:09 12° 189° (S) 23:26:32 437.505
QB50P2 25 Aug 23:35:30 23:39:26 39° 281° (WNW) 23:43:21 145.880/145.840
DUCHIFAT 1 25 Aug 23:36:15 23:40:16 50° 282° (WNW) 23:44:19 145.980
POLYITAN 1 25 Aug 23:38:03 23:41:57 39° 281° (WNW) 23:45:52 437.675
VELOX 1 25 Aug 23:39:49 23:44:12 70° 259° (W) 23:48:35 145.980
Cosmos 2499 25 Aug 23:41:19 23:48:27 89° 267° (W) 23:56:04 435.465 / 435.565
CUBEBUG 1 25 Aug 23:48:32 23:52:35 39° 258° (WSW) 23:56:39 437.445
NANOSAT C BR1 25 Aug 23:49:14 23:52:52 29° 282° (WNW) 23:56:31 145.865
DANDE 25 Aug 23:52:10 23:55:13 27° 272° (W) 23:57:44 436.750
AIST 2 25 Aug 23:58:03 23:59:08 11° 248° (WSW) 00:00:15 435.215
Oscar 19 26 Aug 00:02:29 00:04:45 13° 103° (ESE) 00:07:01 437.125/150
DX 1 26 Aug 00:05:26 00:09:37 48° 258° (WSW) 00:13:48 434.975-435.025
RS-15 26 Aug 00:05:30 00:16:31 81° 291° (WNW) 00:28:05 29.354- 29.394
O/OREOS (USA 219) 26 Aug 00:07:53 00:11:47 28° 75° (ENE) 00:15:43 437.305
JAS-2 26 Aug 00:09:17 00:16:43 69° 283° (WNW) 00:24:33 435.910
50 SAT 26 Aug 00:12:42 00:15:00 16° 258° (WSW) 00:17:17 437.505
ESTCUBE 1 26 Aug 00:13:11 00:14:45 12° 258° (WSW) 00:16:19 437.505/2401.250
SPROUT 26 Aug 00:17:10 00:21:19 47° 258° (WSW) 00:25:27 437.525
AISAT 26 Aug 00:30:39 00:32:49 13° 258° (WSW) 00:34:59 437.250
BUGSAT 1 26 Aug 00:42:49 00:45:21 16° 282° (WNW) 00:47:53 437.445
TISAT 1 26 Aug 00:44:48 00:48:57 55° 78° (ENE) 00:53:06 437.305
UKube-1 26 Aug 00:52:02 00:54:34 15° 257° (WSW) 00:57:06 .
SRMSAT 26 Aug 00:52:10 00:55:53 17° 193° (SSW) 00:59:37 437.500
Gurwin Techsat 1B 26 Aug 00:52:24 00:56:16 21° 103° (ESE) 01:00:08 435.225
GONETS M04 26 Aug 00:52:44 00:58:28 19° 267° (W) 01:04:13
BEESAT 26 Aug 01:05:42 01:07:28 12° 77° (ENE) 01:09:12 436.000
Oscar 19 26 Aug 01:39:01 01:43:46 38° 283° (WNW) 01:48:33 437.125/150
AO-7 26 Aug 01:45:09 01:46:24 10° 108° (ESE) 01:47:40 29.400- 29.500
ITUPSAT 1 26 Aug 01:48:42 01:53:17 46° 78° (ENE) 01:57:50 437.325
O/OREOS (USA 219) 26 Aug 01:48:55 01:50:56 13° 255° (WSW) 01:52:57 437.305
SWISSCUBE 26 Aug 02:22:58 02:27:35 50° 257° (WSW) 02:32:11 437.505
Gurwin Techsat 1B 26 Aug 02:31:39 02:35:56 25° 283° (WNW) 02:40:15 435.225
BEESAT 26 Aug 02:40:39 02:44:58 34° 257° (WSW) 02:49:15 436.000
SRMSAT 26 Aug 02:45:18 02:46:06 10° 183° (S) 02:46:54 437.500
ITAMSAT 1 26 Aug 02:47:43 02:52:52 72° 283° (WNW) 02:58:04 435.822/435.867
JUGNU 26 Aug 03:01:17 03:04:27 15° 168° (SSE) 03:07:39 437.505
MOZHAYETS 4 26 Aug 03:13:35 03:18:06 55° 78° (ENE) 03:22:33
KKS-1 26 Aug 03:24:01 03:28:23 56° 78° (ENE) 03:32:46 437.445
AO-7 26 Aug 03:30:23 03:38:40 83° 286° (WNW) 03:46:59 29.400- 29.500
AO-85 26 Aug 03:41:46 03:47:08 73° 112° (ESE) 03:52:31 145.980
STARS 26 Aug 04:05:53 04:10:20 87° 74° (ENE) 04:14:45 437.465
CUBESAT XI-V 26 Aug 04:27:55 04:32:09 37° 79° (ENE) 04:36:23 437.345
BRITE-PL 26 Aug 04:29:18 04:32:59 18° 101° (E) 04:36:31 437.365/2234.400
Cosmos 2491 26 Aug 04:30:10 04:37:11 27° 87° (E) 04:44:10 435.465 / 435.565
SRMSAT 26 Aug 04:34:30 04:36:30 12° 173° (S) 04:38:30 437.500
JUGNU 26 Aug 04:48:50 04:54:04 31° 161° (SSE) 04:59:18 437.505
HORYU 2 26 Aug 04:58:59 05:03:17 55° 282° (WNW) 05:07:37 437.375
Cubesat XI-IV 26 Aug 05:01:29 05:04:43 16° 103° (ESE) 05:07:56 437.490
CUTE-I 26 Aug 05:13:06 05:17:15 23° 103° (ESE) 05:21:25 437.470
YUBILEINY 26 Aug 05:15:55 05:24:30 56° 93° (E) 05:33:04 435.215
NOAA 15 26 Aug 05:20:40 05:25:37 40° 103° (ESE) 05:30:34 137.62
NOAA 18 26 Aug 05:34:24 05:39:22 37° 103° (ESE) 05:44:21 137.9125
GOMX 1 26 Aug 05:52:51 05:57:57 72° 101° (E) 06:02:42 467.674
BRITE-PL 26 Aug 06:06:24 06:11:11 30° 283° (WNW) 06:15:46 437.365/2234.400
DOVE 4 26 Aug 06:10:31 06:14:54 40° 101° (E) 06:19:03 437.250
ISS 26 Aug 06:14:19 06:17:35 77° 305° (NW) 06:20:50 145.825
SRMSAT 26 Aug 06:22:01 06:26:32 22° 164° (SSE) 06:31:01 437.500
Cosmos 2491 26 Aug 06:25:37 06:33:37 39° 267° (W) 06:41:40 435.465 / 435.565
LilacSat-2 26 Aug 06:26:59 06:30:10 26° 281° (W) 06:33:22 437.200
STRAND 1 26 Aug 06:34:11 06:39:03 43° 77° (ENE) 06:43:52 437.568
JUGNU 26 Aug 06:37:12 06:43:14 82° 158° (SSE) 06:49:14 437.505
Cubesat XI-IV 26 Aug 06:39:50 06:44:29 32° 283° (WNW) 06:49:12 437.490
Cosmos 2504 26 Aug 06:47:23 06:56:20 87° 91° (E) 07:04:52 435.465 / 435.565
CANX-2 26 Aug 06:50:14 06:53:24 21° 102° (ESE) 06:56:36 2200.000
CUTE-I 26 Aug 06:52:58 06:57:01 22° 283° (WNW) 07:01:06 437.470
CUTE 1.7 + AOD 2 26 Aug 06:56:43 06:59:56 21° 102° (ESE) 07:03:11 437.475
NOAA 15 26 Aug 07:02:53 07:05:06 13° 283° (WNW) 07:07:19 137.62
CINEMA 3 26 Aug 07:06:14 07:10:14 40° 101° (ESE) 07:14:09 145.822/145.860
BEESAT 3 26 Aug 07:07:33 07:08:44 11° 112° (ESE) 07:09:55 437.485
COMPASS 1 26 Aug 07:16:44 07:19:16 16° 102° (ESE) 07:21:50 437.405
NOAA 18 26 Aug 07:16:52 07:19:44 15° 284° (WNW) 07:22:39 137.9125
